Location: PSU-Greenbush Astrophysical Observatory
(37.5140°N, 94.9880°W)
Time: 02:54:07
(UTC-06:00)

S-56A Canister/Altair - Visible Passes

Search period start: 18 January 2020 00:00
Search period end: 28 January 2020 00:00
Orbit: 634 x 2498 km, 38.9° (Epoch: 18 January)

Date Brightness Start Highest point End Pass type
(mag) Time Alt. Az. Time Alt. Az. Time Alt. Az.
18 Jan 9.5 05:06:44 25° SSW 05:06:44 25° SSW 05:12:25 10° SSE visible
19 Jan 9.8 04:36:05 21° S 04:36:05 21° S 04:39:27 10° SSE visible
19 Jan 10.0 19:43:36 10° S 19:44:52 12° SSE 19:44:52 12° SSE visible
20 Jan 10.4 04:05:26 14° SSE 04:05:26 14° SSE 04:06:32 10° SSE visible
20 Jan 9.9 19:11:28 10° SSE 19:13:32 11° SSE 19:14:14 11° SE visible
21 Jan 10.0 18:39:47 10° SSE 18:40:48 10° SE 18:41:47 10° SE visible
21 Jan 9.8 20:38:51 10° SW 20:41:02 19° SSW 20:41:02 19° SSW visible
22 Jan 9.1 20:05:55 10° SW 20:10:23 30° S 20:10:23 30° S visible
23 Jan 8.8 19:32:56 10° SSW 19:39:23 32° SSE 19:39:43 32° SSE visible
24 Jan 9.0 18:59:56 10° SSW 19:06:41 30° SSE 19:09:01 23° ESE visible
24 Jan 9.9 21:04:09 10° WSW 21:06:27 21° WSW 21:06:27 21° WSW visible
25 Jan 9.5 18:26:53 10° SSW 18:33:55 28° SSE 18:38:17 14° E visible
25 Jan 8.9 20:30:59 10° WSW 20:35:45 41° SW 20:35:45 41° SW visible
26 Jan 9.8 17:53:51 10° SSW 18:01:07 26° SSE 18:06:30 10° E visible
26 Jan 8.0 19:57:44 10° WSW 20:05:00 65° S 20:05:00 65° S visible
27 Jan 8.1 19:24:26 10° WSW 19:32:34 61° SSE 19:34:14 46° ESE visible
27 Jan 10.3 21:30:16 10° W 21:31:41 16° W 21:31:41 16° W visible
